OK2ZAW-19 Weather Reports


time (UTC)temp
F
wind
direction
speed
knots
gust
knots
rain 1hr
in
rain 24hr
in
rain mn
in
humidity
%
barometer
mb
20260506133803 67 315 0.9 1.7 0.00 0.00 0.00 61 1007.1
20260506133252 68 315 0.9 1.7 0.00 0.00 0.00 60 1007.0
20260506132229 68 315 1.7 4.3 0.00 0.00 0.00 60 1007.2
20260506131718 67 315 0.9 2.6 0.00 0.00 0.00 61 1007.3
20260506131206 67 315 1.7 3.5 0.00 0.00 0.00 61 1007.3
20260506130655 67 315 0.9 1.7 0.00 0.00 0.00 63 1007.5
20260506130144 67 315 1.7 4.3 0.00 0.00 0.00 60 1007.6
20260506125632 67 315 3.5 5.2 0.00 0.00 0.00 61 1007.6
20260506125121 67 315 1.7 3.5 0.00 0.00 0.00 62 1007.6
20260506124610 64 315 0.9 2.6 0.00 0.00 0.00 69 1007.7
20260506124058 64 315 0.9 2.6 0.00 0.00 0.00 70 1007.8
20260506123547 64 315 0.9 1.7 0.00 0.00 0.00 69 1007.9
20260506123036 64 315 0.9 1.7 0.00 0.00 0.00 67 1008.0
20260506122525 65 315 1.7 3.5 0.00 0.00 0.00 66 1008.0
20260506122014 65 315 2.6 5.2 0.00 0.00 0.00 63 1008.0
20260506121502 66 315 1.7 2.6 0.00 0.00 0.00 64 1008.0
20260506120951 66 315 1.7 3.5 0.00 0.00 0.00 63 1008.0
20260506120440 67 315 1.7 4.3 0.00 0.00 0.00 61 1008.0
20260506115928 67 315 1.7 3.5 0.00 0.00 0.00 64 1008.0
20260506115417 67 315 1.7 3.5 0.00 0.00 0.00 64 1008.1
20260506114906 67 315 1.7 4.3 0.00 0.00 0.00 66 1008.1
20260506114354 67 315 1.7 3.5 0.00 0.00 0.00 66 1008.0
20260506113843 67 315 2.6 4.3 0.00 0.00 0.00 65 1008.1
20260506113332 67 315 1.7 3.5 0.00 0.00 0.00 64 1008.1
20260506112821 67 315 2.6 4.3 0.00 0.00 0.00 67 1008.2
20260506112309 67 315 1.7 3.5 0.00 0.00 0.00 65 1008.2
20260506111246 68 315 1.7 3.5 0.00 0.00 0.00 62 1008.2
20260506110735 68 315 2.6 4.3 0.00 0.00 0.00 61 1008.3
20260506110224 68 315 2.6 5.2 0.00 0.00 0.00 64 1008.4
20260506105712 68 315 2.6 4.3 0.00 0.00 0.00 67 1008.5
20260506105201 67 315 3.5 5.2 0.00 0.00 0.00 69 1008.5
20260506104649 67 315 1.7 3.5 0.00 0.00 0.00 71 1008.5
20260506104138 67 315 0.9 3.5 0.00 0.00 0.00 81 1008.5
20260506103627 66 315 1.7 4.3 0.00 0.00 0.00 82 1008.5
20260506103115 65 315 0.9 2.6 0.00 0.00 0.00 88 1008.6
20260506102604 64 315 1.7 3.5 0.00 0.00 0.00 86 1008.5
20260506102053 64 315 1.7 2.6 0.00 0.00 0.00 86 1008.6
20260506101542 64 315 1.7 3.5 0.00 0.00 0.00 89 1008.7
20260506101031 64 315 2.6 4.3 0.00 0.00 0.00 87 1008.8
20260506100519 64 315 2.6 3.5 0.00 0.00 0.00 94 1008.8
20260506100008 64 315 1.7 2.6 0.00 0.00 0.00 10 1008.8
20260506094946 63 315 2.6 4.3 0.00 0.00 0.00 98 1008.7
20260506094435 62 315 2.6 5.2 0.00 0.00 0.00 10 1008.8
20260506093924 62 315 2.6 3.5 0.00 0.00 0.00 10 1008.8
20260506093413 62 315 1.7 3.5 0.00 0.00 0.00 10 1008.7
20260506092902 61 315 2.6 3.5 0.00 0.00 0.00 10 1008.8
20260506092351 61 315 2.6 3.5 0.00 0.00 0.00 10 1008.7
20260506091840 61 315 2.6 4.3 0.00 0.00 0.00 10 1008.6
20260506091329 61 315 2.6 4.3 0.00 0.00 0.00 10 1008.6
20260506090818 60 315 2.6 3.5 0.00 0.00 0.00 10 1008.6
20260506085245 58 315 2.6 3.5 0.00 0.00 0.00 10 1008.7
20260506084735 58 315 2.6 4.3 0.00 0.00 0.00 10 1008.6
20260506083202 57 315 2.6 2.6 0.00 0.00 0.00 10 1008.7
20260506082651 57 315 1.7 3.5 0.00 0.00 0.00 10 1008.7
20260506082141 57 315 2.6 4.3 0.00 0.00 0.00 10 1008.6
20260506081630 57 315 2.6 4.3 0.00 0.00 0.00 10 1008.6
20260506080609 56 315 3.5 5.2 0.00 0.00 0.00 10 1008.8
20260506073504 56 315 1.7 3.5 0.00 0.00 0.00 10 1008.6
20260506072954 56 315 3.5 5.2 0.00 0.00 0.00 10 1008.6
20260506072443 56 315 2.6 4.3 0.00 0.00 0.00 10 1008.8
20260506071932 56 315 1.7 2.6 0.00 0.00 0.00 10 1008.7
20260506071422 56 315 2.6 2.6 0.00 0.00 0.00 10 1008.7
20260506070911 55 315 2.6 5.2 0.00 0.00 0.00 10 1008.6
20260506070401 55 315 3.5 4.3 0.00 0.00 0.00 10 1008.7
20260506062236 53 315 1.7 3.5 0.00 0.00 0.00 10 1008.4
20260506061215 52 315 1.7 3.5 0.00 0.00 0.00 10 1008.5
20260506051010 49 315 1.7 2.6 0.00 0.00 0.00 10 1008.0
20260506050500 49 315 1.7 3.5 0.00 0.00 0.00 10 1008.0
20260506044929 49 315 1.7 2.6 0.00 0.00 0.00 10 1007.9
20260506044419 49 315 1.7 4.3 0.00 0.00 0.00 10 1007.8
20260506043909 49 315 1.7 3.5 0.00 0.00 0.00 10 1007.8
20260506043359 49 315 2.6 4.3 0.00 0.00 0.00 10 1007.8
20260506042338 49 315 1.7 2.6 0.00 0.00 0.00 10 1007.7
20260506041828 49 315 1.7 2.6 0.00 0.00 0.00 10 1007.6
20260506041317 49 315 1.7 2.6 0.00 0.00 0.00 10 1007.5
20260506040807 49 315 1.7 1.7 0.00 0.00 0.00 10 1007.5
20260506040257 49 315 1.7 2.6 0.00 0.00 0.00 10 1007.4
20260506035747 49 315 1.7 2.6 0.00 0.00 0.00 10 1007.4
20260506035236 49 315 1.7 3.5 0.00 0.00 0.00 10 1007.3
20260506034726 49 315 1.7 1.7 0.00 0.00 0.00 10 1007.3
20260506033705 49 315 1.7 1.7 0.00 0.00 0.00 10 1007.2
20260506033155 49 315 1.7 1.7 0.00 0.00 0.00 10 1007.1
20260506032645 50 315 0.9 1.7 0.00 0.00 0.00 10 1007.2
20260506032135 50 315 0.9 1.7 0.00 0.00 0.00 10 1007.3
20260506031624 50 315 0.9 3.5 0.00 0.00 0.00 10 1007.4
20260506031114 50 315 1.7 2.6 0.00 0.00 0.00 10 1007.4
20260506030603 50 315 1.7 2.6 0.00 0.00 0.00 10 1007.5
20260506030053 50 315 1.7 2.6 0.00 0.00 0.00 10 1007.6
20260506025543 50 315 1.7 2.6 0.00 0.00 0.00 10 1007.5
20260506025032 50 315 1.7 2.6 0.00 0.00 0.00 10 1007.3
20260506024522 50 315 1.7 1.7 0.00 0.00 0.00 10 1007.3
20260506024012 50 315 1.7 1.7 0.00 0.00 0.00 10 1007.3
20260506023501 50 315 0.9 1.7 0.00 0.00 0.00 10 1007.2
20260506022951 50 315 0.0 0.9 0.00 0.00 0.00 10 1007.1
20260506022441 50 315 0.0 0.0 0.00 0.00 0.00 10 1007.1
20260506021930 51 315 0.0 0.0 0.00 0.00 0.00 10 1007.0
20260506021420 51 315 0.0 0.0 0.00 0.00 0.00 10 1007.0
20260506020914 51 315 0.0 0.0 0.00 0.00 0.00 10 1007.0
20260506020359 51 315 0.0 0.9 0.00 0.00 0.00 10 1007.0
20260506015849 51 315 0.9 1.7 0.00 0.00 0.00 10 1007.0
20260506015338 51 315 0.9 2.6 0.00 0.00 0.00 10 1006.9
20260506014828 51 315 0.9 0.9 0.00 0.00 0.00 10 1006.9
20260506014318 51 315 0.9 1.7 0.00 0.00 0.00 10 1006.8
20260506013807 51 315 0.9 1.7 0.00 0.00 0.00 10 1006.7
20260506013257 52 315 0.9 2.6 0.00 0.00 0.00 10 1006.7
20260506012746 52 315 0.0 1.7 0.00 0.00 0.00 10 1006.7
20260506012236 52 315 0.0 0.9 0.00 0.00 0.00 10 1006.7
20260506011725 52 315 0.9 1.7 0.00 0.00 0.00 10 1006.8
20260506010705 52 315 0.0 1.7 0.00 0.00 0.00 10 1007.0
20260506010154 52 315 0.9 2.6 0.00 0.00 0.00 10 1007.0
20260506005644 51 315 1.7 2.6 0.00 0.00 0.00 10 1006.9
20260506005133 51 315 0.9 1.7 0.00 0.00 0.00 10 1006.8
20260506003602 51 315 0.9 2.6 0.00 0.00 0.00 10 1006.7
20260506003052 51 315 0.9 1.7 0.00 0.00 0.00 10 1006.6
20260506002541 51 315 0.9 1.7 0.00 0.00 0.00 10 1006.6
20260506002031 51 315 1.7 3.5 0.00 0.00 0.00 10 1006.7
20260506001521 51 315 0.9 1.7 0.00 0.00 0.00 10 1006.6
20260506001010 51 315 0.9 1.7 0.00 0.00 0.00 10 1006.5
20260506000500 51 315 0.9 1.7 0.00 0.00 0.00 10 1006.4
20260505235949 51 315 1.7 2.6 0.00 0.00 0.00 10 1006.4
20260505235439 51 315 0.9 1.7 0.00 0.00 0.00 10 1006.5
20260505234928 51 315 1.7 2.6 0.00 0.00 0.00 10 1006.6
20260505233908 52 315 1.7 2.6 0.00 0.00 0.00 10 1006.7
20260505233357 52 315 1.7 2.6 0.00 0.00 0.00 10 1006.5
20260505232847 52 315 2.6 3.5 0.00 0.00 0.00 10 1006.4
20260505232336 52 315 2.6 3.5 0.00 0.00 0.00 10 1006.4
20260505231826 52 315 2.6 4.3 0.00 0.00 0.00 10 1006.4
20260505231315 52 315 1.7 3.5 0.00 0.00 0.00 10 1006.3
20260505230254 52 315 1.7 4.3 0.00 0.00 0.00 10 1006.3
20260505225744 52 315 3.5 6.1 0.00 0.00 0.00 10 1006.2
20260505225233 52 315 1.7 4.3 0.00 0.00 0.00 10 1006.0
20260505224723 52 315 3.5 7.0 0.00 0.00 0.00 10 1006.0
20260505223702 52 315 2.6 4.3 0.00 0.00 0.00 10 1006.1
20260505223151 52 315 0.9 2.6 0.00 0.00 0.00 10 1006.0
20260505222641 52 315 1.7 4.3 0.00 0.00 0.00 10 1006.0
20260505222130 52 315 1.7 3.5 0.00 0.00 0.00 10 1006.1
20260505221620 52 315 1.7 3.5 0.00 0.00 0.00 10 1006.0
20260505221109 52 315 1.7 4.3 0.00 0.00 0.00 10 1006.0
20260505220559 52 315 0.9 2.6 0.00 0.00 0.00 10 1005.9
20260505220048 52 315 0.9 1.7 0.00 0.00 0.00 10 1005.8
20260505215538 52 315 0.9 1.7 0.00 0.00 0.00 99 1005.8
20260505215027 52 315 0.9 3.5 0.00 0.00 0.00 98 1005.8
20260505214517 52 315 0.9 2.6 0.00 0.00 0.00 97 1005.8
20260505214006 53 315 0.9 1.7 0.00 0.00 0.00 94 1005.7
20260505213456 53 315 0.9 2.6 0.00 0.00 0.00 95 1005.8
20260505212945 53 315 0.9 2.6 0.00 0.00 0.00 93 1005.8
20260505212435 53 315 0.9 2.6 0.00 0.00 0.00 90 1005.8
20260505211924 53 315 0.9 1.7 0.00 0.00 0.00 88 1005.8
20260505211414 53 315 0.9 2.6 0.00 0.00 0.00 87 1005.8
20260505210353 54 315 0.9 1.7 0.00 0.00 0.00 86 1005.9
20260505205842 54 315 1.7 3.5 0.00 0.00 0.00 86 1005.9
20260505205332 54 315 0.9 2.6 0.00 0.00 0.00 84 1005.9
20260505204821 54 315 1.7 4.3 0.00 0.00 0.00 83 1006.0
20260505204310 54 315 0.9 2.6 0.00 0.00 0.00 82 1006.0
20260505203800 54 315 1.7 3.5 0.00 0.00 0.00 81 1006.0
20260505202228 55 315 0.9 1.7 0.00 0.00 0.00 78 1005.8
20260505201717 55 315 0.9 2.6 0.00 0.00 0.00 76 1006.0
20260505201207 55 315 0.9 1.7 0.00 0.00 0.00 77 1006.0
20260505200656 56 315 0.9 2.6 0.00 0.00 0.00 75 1006.0
20260505200145 56 315 0.9 3.5 0.00 0.00 0.00 74 1006.1
20260505195635 56 315 0.9 2.6 0.00 0.00 0.00 72 1006.0
20260505195124 56 315 0.9 2.6 0.00 0.00 0.00 72 1006.1
20260505194103 57 315 0.9 2.6 0.00 0.00 0.00 70 1006.2
20260505193552 57 315 1.7 3.5 0.00 0.00 0.00 69 1006.1
20260505193041 57 315 0.9 2.6 0.00 0.00 0.00 69 1006.1
20260505192530 57 315 0.9 3.5 0.00 0.00 0.00 67 1006.1
20260505191509 58 315 0.9 4.3 0.00 0.00 0.00 66 1006.0
20260505190958 58 315 0.9 1.7 0.00 0.00 0.00 63 1006.1
20260505185937 58 315 0.9 1.7 0.00 0.00 0.00 63 1006.0
20260505185426 59 315 0.9 1.7 0.00 0.00 0.00 62 1006.2
20260505184915 59 315 0.9 2.6 0.00 0.00 0.00 59 1006.1
20260505184404 59 315 0.9 1.7 0.00 0.00 0.00 59 1006.1
20260505183853 59 315 0.0 0.9 0.00 0.00 0.00 58 1006.1
20260505183342 60 315 0.9 1.7 0.00 0.00 0.00 58 1006.0
20260505182831 60 315 0.9 2.6 0.00 0.00 0.00 56 1006.1
20260505182320 60 315 0.9 1.7 0.00 0.00 0.00 54 1006.0
20260505181809 61 315 0.0 0.9 0.00 0.00 0.00 52 1006.1
20260505181258 61 315 0.9 1.7 0.00 0.00 0.00 53 1006.1
20260505175725 62 315 0.0 1.7 0.00 0.00 0.00 47 1006.0
20260505175214 62 315 0.0 1.7 0.00 0.00 0.00 47 1006.0
20260505174152 63 315 0.0 1.7 0.00 0.00 0.00 43 1006.0
20260505173641 63 315 0.0 0.9 0.00 0.00 0.00 44 1006.0
20260505173130 63 315 0.0 2.6 0.00 0.00 0.00 42 1006.0
20260505171556 65 315 0.0 0.9 0.00 0.00 0.00 40 1006.0
20260505171045 65 315 0.0 0.0 0.00 0.00 0.00 39 1006.1
20260505170534 66 315 0.0 0.9 0.00 0.00 0.00 38 1006.1
20260505170023 67 315 0.0 0.0 0.00 0.00 0.00 37 1006.2
20260505165511 67 315 0.0 0.9 0.00 0.00 0.00 37 1006.2
20260505165000 68 315 0.0 0.9 0.00 0.00 0.00 37 1006.2
20260505164449 69 315 0.0 0.9 0.00 0.00 0.00 36 1006.3
20260505163937 69 315 0.0 0.9 0.00 0.00 0.00 36 1006.3
20260505162914 72 315 0.9 3.5 0.00 0.00 0.00 34 1006.4
20260505162402 73 315 0.0 0.9 0.00 0.00 0.00 32 1006.5
20260505161851 75 315 0.0 0.9 0.00 0.00 0.00 31 1006.5
20260505161339 76 315 0.9 1.7 0.00 0.00 0.00 30 1006.6
20260505160826 79 315 0.0 0.9 0.00 0.00 0.00 29 1006.6
20260505160314 81 315 0.0 1.7 0.00 0.00 0.00 28 1006.6
20260505153159 84 315 0.9 1.7 0.00 0.00 0.00 27 1006.5
20260505152134 84 315 0.9 1.7 0.00 0.00 0.00 28 1006.6
20260505151621 84 315 0.9 2.6 0.00 0.00 0.00 28 1006.7
20260505151109 83 315 0.9 2.6 0.00 0.00 0.00 29 1006.7
20260505150556 83 315 1.7 2.6 0.00 0.00 0.00 29 1006.8
20260505140328 80 315 0.9 2.6 0.00 0.00 0.00 35 1007.7